Temperature
21 20 20 21 26 28 28 28 28 27 27 26 25 25 25 25 25 23 20 20 19 19 19 19 19 19 19 19 19 19 19 19 19 19 19 19 19 19 19 19 19 18 18 18 18 18 18 18 18
21 20 21 25 29 28 27 28 27 27 26 25 25 25 25 24 22 21 20 19 19 19 19 19 19 19 19 19 19 19 19 19 19 19 19 19 19 19 19 19 18 18 18 18 18 18 18 18 18
21 21 24 29 29 28 27 28 27 26 26 25 25 24 24 23 21 21 20 19 19 19 19 19 19 19 19 19 19 19 19 19 19 19 19 19 19 19 19 18 18 18 18 18 18 18 18 18 18
21 23 27 30 29 28 28 28 28 27 26 25 25 24 22 21 21 20 19 19 20 19 19 19 19 19 19 19 19 19 19 19 19 19 19 19 19 19 19 19 19 19 18 18 18 18 18 18 18
23 27 30 30 29 29 29 28 27 28 27 25 25 24 22 20 20 20 19 20 20 19 19 19 19 19 19 19 19 19 19 19 19 19 19 19 19 19 19 19 18 18 18 18 18 18 18 18 18
27 30 30 29 29 29 29 28 27 27 26 25 25 24 22 20 20 20 20 20 20 20 19 19 19 19 19 19 19 19 19 19 19 19 19 19 19 18 18 18 18 18 18 18 18 18 18 18 18
28 31 30 30 29 29 29 28 28 27 26 25 25 24 22 21 20 20 20 20 20 20 19 19 19 19 19 19 19 19 19 19 19 19 19 19 19 18 18 18 18 18 18 18 18 18 18 18 18
28 31 31 30 30 29 29 28 27 27 26 25 24 25 23 21 20 20 20 20 20 20 19 19 19 19 19 19 19 19 19 19 19 19 19 19 19 18 18 18 18 18 18 18 18 18 18 18 18
27 31 30 30 30 29 29 28 27 26 25 25 24 24 23 20 20 20 20 20 20 19 19 19 19 19 19 19 18 19 19 19 19 19 19 19 18 18 18 18 18 18 18 18 18 18 18 18 18
30 31 31 31 31 30 29 28 27 27 26 25 24 22 21 21 21 21 21 21 20 20 20 19 19 19 19 19 18 18 18 18 18 18 18 18 18 18 18 18 19 19 18 18 18 18 18 18 18
31 31 31 31 30 30 29 29 28 28 27 26 25 23 22 21 21 21 21 21 20 20 20 20 19 19 19 19 19 19 18 18 18 18 18 18 18 18 18 18 18 18 18 18 18 18 18 18 18
31 31 30 30 30 30 29 29 28 28 27 26 25 23 22 22 22 22 21 21 20 20 20 20 19 19 19 19 19 19 19 19 19 18 18 18 18 18 18 18 18 18 18 18 18 18 18 18 18
31 31 30 30 29 29 29 29 28 27 26 25 24 23 23 23 22 22 21 21 20 20 20 19 19 19 19 19 19 19 19 19 19 18 18 18 18 18 18 18 18 18 18 18 18 18 18 18 18
31 30 30 30 30 29 29 29 28 27 26 25 24 24 23 23 23 22 21 21 20 20 20 20 19 19 19 19 19 18 19 19 19 18 18 18 18 18 18 18 18 18 18 18 18 18 18 18 18
30 31 31 31 30 30 30 29 29 27 26 26 25 24 24 23 22 22 21 21 21 20 20 20 19 19 19 19 19 19 19 19 18 18 18 18 18 18 18 18 18 18 18 18 18 18 18 18 18
31 31 31 31 31 30 30 30 30 27 27 26 25 24 24 23 23 22 21 21 20 20 20 20 20 19 19 19 19 19 19 18 18 18 18 18 18 18 18 18 18 18 18 18 18 18 18 18 18
31 31 31 31 31 31 30 30 30 28 27 27 26 25 24 24 23 22 22 21 21 20 20 20 19 19 19 19 19 19 18 18 18 18 18 18 18 18 18 18 18 18 18 18 18 18 18 18 18
31 31 31 31 31 31 30 30 30 28 28 28 27 26 25 24 23 22 22 21 21 20 20 20 19 19 19 19 19 19 18 18 18 18 18 18 18 18 18 18 18 18 18 18 18 18 18 18 18
31 31 31 31 31 31 30 31 31 29 29 28 27 27 26 25 24 23 22 21 21 21 20 20 20 19 19 19 19 19 19 19 18 18 18 18 18 18 18 18 18 18 18 18 18 18 18 18 18
31 31 31 31 31 30 30 31 31 30 29 28 28 27 26 25 24 23 22 22 21 21 20 20 20 20 20 19 19 19 19 19 19 18 18 18 18 18 18 18 18 18 18 18 18 18 18 18 18
31 31 31 31 31 31 30 30 31 31 29 29 28 27 27 26 25 23 23 22 22 21 21 21 20 20 20 19 19 19 19 19 19 19 19 19 18 18 18 18 18 18 18 18 18 18 18 18 18
31 31 31 31 30 31 31 30 31 31 30 30 29 28 27 26 25 24 23 23 22 22 21 21 21 20 20 20 19 19 19 19 19 19 19 19 18 18 18 18 18 18 18 18 18 18 18 18 18
31 31 31 31 31 31 31 31 31 31 31 30 30 28 28 27 26 25 24 23 23 22 21 21 21 21 20 20 20 19 19 19 19 19 19 19 19 19 19 18 18 18 18 18 18 18 18 18 18
31 31 30 31 31 30 31 31 31 32 31 31 30 29 28 27 26 25 24 23 23 22 22 21 21 21 21 20 20 20 19 19 19 19 19 19 19 19 19 18 18 18 18 18 18 18 18 18 18
31 31 30 30 30 30 31 30 31 31 31 30 30 29 28 27 26 25 24 24 23 22 22 21 21 21 21 20 20 20 20 19 19 19 19 19 19 19 19 19 19 18 18 18 18 18 18 18 18
31 31 30 29 30 31 30 30 31 31 30 29 29 29 28 27 26 25 24 24 23 22 22 21 21 21 21 20 20 20 20 19 19 19 19 19 19 19 19 19 19 18 18 18 18 18 18 18 18
31 31 32 31 31 30 31 31 31 31 30 30 29 29 28 27 26 25 25 24 23 23 22 22 21 21 21 20 20 20 20 20 19 19 19 19 19 19 19 19 19 19 18 18 18 18 18 18 18
31 31 31 31 29 29 30 31 31 30 30 30 29 28 27 27 26 25 25 24 23 23 22 21 21 21 21 20 20 20 20 20 20 19 19 19 19 19 19 19 19 18 18 18 18 18 18 18 18
30 30 30 31 31 30 30 30 31 30 29 29 29 28 27 27 26 25 24 24 23 23 22 21 21 21 21 20 20 20 20 20 19 19 19 19 19 19 19 19 18 18 18 18 18 18 18 18 17
31 30 30 29 29 30 30 30 30 30 29 29 28 27 26 26 26 25 24 23 23 22 22 21 21 21 20 20 20 20 20 19 19 19 19 19 19 19 19 19 18 18 18 18 18 18 18 17 17
Wind_Speed
12 9 5 4 3 4 11 9 8 7 6 6 7 5 6 7 5 6 5 5 5 6 7 9 9 9 9 9 10 10 10 10 11 12 12 12 13 14 15 15 16 17 18 18 17 18 19 19 18
8 5 4 4 2 8 10 9 9 9 6 5 5 5 6 6 6 6 6 5 5 6 7 9 9 9 9 9 9 9 10 10 11 12 12 12 14 15 15 16 16 17 17 17 18 18 18 18 18
6 5 4 1 8 10 9 8 8 7 6 4 4 5 5 6 5 5 6 6 6 7 7 10 9 9 9 9 9 9 10 10 11 12 12 13 14 15 16 16 16 17 17 17 17 17 17 17 17
4 4 3 4 11 10 8 7 6 6 6 5 5 6 6 6 3 6 8 7 8 8 8 10 9 9 9 9 9 10 10 10 11 11 12 13 14 15 16 16 16 17 17 17 17 17 17 16 16
5 3 2 8 11 9 8 7 5 5 5 5 5 7 8 7 8 10 9 7 8 8 8 10 9 9 9 9 9 9 10 10 11 12 13 13 14 15 15 16 16 16 16 16 16 16 15 15 14
3 2 5 9 10 7 7 5 4 6 7 6 6 8 7 7 8 8 8 7 7 8 8 10 10 8 9 9 9 9 9 10 11 12 13 13 14 14 14 15 15 15 15 15 15 14 14 13 13
4 4 8 9 9 8 6 5 5 6 6 6 5 7 7 8 8 8 8 7 7 7 7 7 9 9 9 8 9 9 9 10 11 12 12 13 13 13 13 13 13 14 14 14 14 13 13 12 11
3 1 7 8 8 9 6 5 5 5 7 7 3 5 7 9 8 8 8 7 7 6 6 6 7 7 8 9 9 9 10 11 12 12 12 12 12 12 12 12 12 13 13 13 13 13 12 12 11
3 1 8 8 8 7 6 6 6 6 8 6 5 7 10 12 10 9 8 7 7 6 5 6 6 6 6 8 8 8 10 11 11 11 10 8 9 10 10 12 11 11 12 12 12 11 11 11 11
2 4 9 6 6 5 5 5 6 6 7 7 8 10 12 11 10 9 8 8 7 6 6 6 5 5 5 6 6 6 7 8 7 7 7 7 8 8 9 12 10 10 10 11 11 10 11 9 9
1 5 5 5 4 4 5 5 5 5 5 6 9 12 12 11 9 8 7 7 7 6 6 6 6 5 4 4 4 4 5 5 6 7 7 6 6 6 7 7 8 9 9 8 9 9 6 4 4
1 3 3 3 3 3 4 6 5 4 6 7 9 12 12 10 9 7 7 7 7 6 5 5 6 5 3 3 4 4 4 4 4 5 5 5 4 4 4 4 5 5 5 4 4 4 4 4 4
1 2 3 3 3 4 5 5 5 5 6 9 10 11 10 10 9 7 7 7 6 6 5 5 5 5 4 3 2 3 3 3 5 4 5 4 4 4 4 4 3 4 4 4 4 4 4 3 4
1 2 2 3 4 4 4 4 4 6 8 10 10 10 10 9 9 8 8 7 6 6 5 5 5 5 4 3 2 2 3 3 4 4 4 3 4 4 3 3 3 3 3 3 3 4 3 2 3
3 3 4 4 3 3 3 3 4 8 9 10 10 10 9 9 9 8 8 7 7 7 6 5 5 5 4 3 3 3 3 4 3 4 4 3 3 3 3 3 2 3 3 3 3 3 2 2 3
5 5 3 4 2 3 4 3 6 9 10 9 10 10 9 9 9 8 8 7 7 7 7 6 5 5 5 3 2 2 2 3 3 3 4 3 2 2 2 2 2 2 2 3 2 2 2 2 2
6 4 2 3 3 2 4 1 6 9 9 9 10 10 10 10 9 8 8 8 8 7 7 7 6 5 5 4 3 3 2 2 2 3 2 3 3 2 2 1 2 1 1 1 1 2 1 1 1
3 2 2 1 2 3 4 2 5 9 9 9 10 10 10 10 10 10 9 9 8 8 7 7 7 6 5 4 4 3 2 3 2 3 2 2 2 2 1 2 1 1 1 1 1 1 1 1 0
4 4 3 1 1 4 4 4 5 8 9 9 10 10 11 10 10 10 10 9 9 8 8 8 7 7 6 4 4 4 3 3 3 3 3 3 3 3 2 1 2 1 1 1 1 1 2 1 1
6 6 4 2 2 3 4 5 5 7 9 10 10 11 11 11 11 11 11 10 10 9 9 9 8 8 8 6 4 3 2 3 3 2 3 3 3 3 3 2 2 2 2 2 1 1 1 1 1
8 7 5 3 3 5 5 6 6 7 8 9 10 10 11 11 12 13 12 12 11 11 10 9 9 8 8 7 5 4 4 3 4 3 3 3 3 3 3 3 3 2 3 2 2 2 2 1 1
7 4 5 5 6 4 5 4 4 6 8 9 10 10 11 11 12 13 13 13 12 12 11 10 10 9 8 8 7 7 5 4 3 3 2 3 3 3 3 3 3 3 2 2 3 2 2 3 2
5 3 5 7 7 7 6 6 3 6 6 7 8 9 10 11 12 13 13 13 12 12 11 11 10 10 10 9 8 7 6 4 3 3 3 3 3 3 3 3 3 3 3 2 2 2 3 3 3
5 5 6 8 8 8 5 6 3 3 4 4 6 8 9 10 11 12 12 12 12 12 11 11 11 10 10 10 9 8 7 5 4 4 3 4 3 3 3 3 3 3 2 3 3 3 4 3 3
9 9 7 7 7 6 3 6 3 1 2 3 4 6 8 9 10 11 12 13 12 12 12 11 11 10 10 10 9 8 7 7 6 5 5 4 3 3 3 2 2 2 3 3 3 4 3 4 4
11 12 8 7 6 4 5 6 2 1 1 2 2 4 6 9 9 11 11 12 12 12 12 11 11 11 11 10 9 8 8 6 5 6 4 4 3 2 3 3 3 3 3 3 4 4 4 3 4
10 11 10 10 9 8 5 5 4 3 3 2 2 3 5 7 9 10 10 11 11 12 12 12 11 10 10 10 9 8 8 6 5 5 5 4 3 3 3 3 3 3 3 3 4 3 3 3 4
9 9 8 10 9 9 8 8 4 3 3 2 2 2 3 6 8 9 9 10 10 11 11 11 11 11 10 9 8 7 7 7 6 5 5 4 3 3 3 4 3 3 3 4 4 3 3 4 3
10 11 9 9 10 10 8 4 0 1 2 2 1 1 2 5 6 8 8 8 9 10 10 11 10 10 10 9 8 7 7 7 7 6 5 5 4 4 4 4 4 4 3 4 4 4 4 4 4
10 11 12 11 10 10 11 5 2 0 1 1 1 1 1 3 5 7 8 8 8 9 9 10 9 9 9 9 9 8 7 7 7 6 6 5 5 5 5 5 4 4 4 4 4 5 5 5 4
Wind_Direction
175 183 208 236 238 75 61 56 54 58 53 47 41 37 43 35 27 74 84 83 82 88 90 92 81 81 77 75 74 75 78 79 80 83 88 93 105 111 116 118 122 122 121 120 120 119 119 119 123
173 186 229 247 8 69 63 54 55 52 67 69 57 53 60 61 59 91 102 92 97 91 91 85 86 83 80 77 76 77 79 80 81 86 90 93 103 105 113 114 118 122 121 121 120 118 119 119 120
185 225 266 343 50 53 60 60 68 71 71 59 62 53 51 69 84 100 104 115 106 91 92 90 87 83 81 77 77 78 80 82 84 87 92 96 102 107 111 116 117 120 120 120 119 118 118 117 118
218 231 235 59 63 57 56 64 81 84 73 61 75 82 72 55 69 111 118 119 108 104 100 96 91 85 82 80 80 79 81 83 85 88 92 96 102 107 110 111 114 117 119 119 119 119 119 119 120
245 265 87 73 66 63 62 66 71 64 68 75 80 89 84 67 86 111 121 117 108 102 101 101 97 90 84 81 80 81 81 84 88 91 93 95 100 104 108 111 113 116 118 120 120 119 120 121 123
256 280 59 68 70 69 69 70 70 67 80 88 98 100 87 94 102 111 115 113 108 105 103 104 108 97 89 83 80 77 81 88 93 96 98 98 99 102 108 112 116 120 122 122 122 124 127 126 126
311 25 59 66 71 72 66 67 61 70 85 90 104 102 109 113 112 118 116 113 109 107 107 107 113 112 105 92 83 78 85 97 101 101 102 103 103 105 107 110 115 120 123 124 125 129 129 126 130
304 351 71 67 66 69 80 83 73 76 86 94 101 106 124 126 127 123 119 117 114 110 107 106 103 106 112 106 94 84 86 103 108 106 108 109 114 116 118 116 111 118 122 126 128 129 129 129 135
268 53 64 56 57 75 96 99 94 96 105 102 88 86 114 130 136 133 127 124 118 113 111 109 109 105 103 99 103 101 98 109 119 116 120 125 115 114 118 103 112 119 124 128 131 133 136 144 147
275 50 57 47 46 75 103 104 113 125 118 112 110 107 122 139 145 142 136 132 128 126 123 115 110 103 101 99 103 100 98 99 100 99 108 108 105 104 105 114 121 125 131 139 142 152 163 181 151
39 41 45 55 54 81 111 117 123 126 116 124 135 137 143 147 148 146 137 130 127 132 128 125 116 116 107 106 105 99 102 102 102 98 100 98 102 110 112 120 131 135 148 142 149 165 153 145 125
75 48 33 53 72 100 109 116 117 104 92 115 135 145 150 154 154 152 142 137 133 134 129 122 123 120 106 94 104 113 111 107 102 101 100 101 94 94 100 105 110 121 118 122 134 130 126 129 129
113 69 68 84 107 109 124 121 115 113 119 127 141 151 157 160 156 152 145 146 143 143 138 126 129 125 125 121 115 110 106 106 106 106 104 103 106 89 88 85 93 104 113 130 129 123 126 134 141
78 105 112 116 119 134 133 130 140 130 139 142 152 159 162 162 162 159 160 164 163 159 149 140 146 141 141 142 133 118 123 123 109 106 105 105 101 94 99 104 93 94 97 94 115 124 130 122 110
187 171 150 137 147 149 163 151 159 146 150 154 161 165 167 170 171 175 173 174 173 168 161 160 158 148 153 152 158 146 136 126 117 115 119 118 108 109 107 97 106 95 102 112 118 110 116 127 128
207 210 180 137 161 179 230 104 134 157 164 165 170 172 177 180 183 182 179 179 176 171 169 176 172 158 159 159 163 145 141 129 133 134 134 132 122 130 126 94 91 98 115 116 121 108 98 97 117
210 220 188 148 174 201 237 113 137 169 179 178 180 180 184 183 190 187 184 181 180 178 177 179 180 171 169 164 167 160 150 150 161 158 155 148 160 159 153 105 89 130 113 112 131 111 101 117 125
226 237 216 212 175 229 241 236 165 179 193 191 188 188 188 189 190 187 187 184 182 180 179 182 180 181 176 171 172 169 167 166 172 171 167 179 182 177 194 159 155 189 147 143 110 139 154 192 208
262 258 254 247 210 247 252 250 206 191 200 202 198 195 196 195 187 185 187 186 184 183 183 185 187 179 180 182 186 178 175 180 179 181 172 193 198 183 207 208 176 206 167 183 174 185 174 174 161
245 247 242 210 202 247 262 259 227 202 208 209 206 201 201 195 189 187 190 189 189 187 188 186 187 185 187 184 187 190 189 197 189 189 177 196 194 198 196 207 220 199 193 192 201 208 243 181 172
244 256 258 257 230 220 256 240 211 198 207 210 212 210 204 200 196 192 193 194 192 190 191 192 189 186 190 185 186 184 184 199 190 194 194 198 205 206 213 206 222 222 224 190 202 206 219 233 224
247 252 258 249 247 239 251 258 200 198 202 207 211 210 206 199 198 195 193 196 197 193 190 191 189 188 186 186 193 195 200 203 202 205 196 202 209 217 212 212 214 228 230 201 214 188 220 233 234
257 248 244 249 253 260 241 260 214 188 211 211 212 212 208 200 196 195 194 194 197 194 190 187 187 189 188 190 193 201 208 208 204 203 197 222 211 216 215 214 211 213 219 212 241 233 237 236 256
206 212 226 233 244 246 248 258 245 206 230 233 216 207 203 198 194 194 193 191 194 193 191 187 185 190 190 191 194 200 207 209 209 210 207 212 204 203 208 208 207 210 210 205 221 233 231 240 257
218 230 230 226 227 241 210 251 260 286 260 252 226 203 196 195 192 190 190 190 191 192 192 189 185 189 190 192 196 198 204 206 209 219 215 221 215 201 187 207 209 214 209 215 222 224 237 237 239
222 236 245 253 249 230 207 245 235 171 246 234 212 186 186 188 189 189 188 188 189 190 189 188 186 191 192 193 196 200 203 210 214 218 228 218 227 206 179 194 196 209 216 217 217 229 227 227 234
222 232 252 260 262 263 242 234 223 210 217 207 180 164 171 181 184 185 184 186 186 187 187 187 186 189 192 192 192 197 202 212 218 215 223 225 220 207 187 195 198 204 211 221 223 230 234 230 237
245 238 235 246 254 255 243 241 243 215 228 226 206 184 175 175 180 181 179 181 181 182 181 183 184 186 188 189 193 191 197 203 211 217 217 225 222 213 199 203 207 214 216 216 222 223 221 227 233
211 223 233 245 252 259 258 244 35 243 244 252 235 206 188 181 179 177 174 174 173 175 177 179 182 185 187 190 190 194 192 195 199 205 208 208 209 203 208 209 213 218 217 214 216 227 222 228 235
231 228 227 236 239 249 265 258 97 214 217 256 266 190 169 174 172 168 167 165 169 173 176 177 180 185 188 188 188 192 192 195 200 205 207 203 204 206 205 208 211 216 216 219 223 232 230 230 232
Height
1497 1497 1498 1499 1493 1488 1493 1492 1490 1491 1494 1498 1498 1498 1498 1499 1501 1510 1512 1510 1510 1510 1509 1508 1507 1506 1506 1505 1504 1503 1503 1502 1501 1500 1500 1499 1499 1500 1501 1503 1505 1508 1511 1513 1515 1517 1520 1522 1525
1499 1498 1500 1496 1488 1495 1498 1492 1493 1495 1498 1500 1500 1500 1500 1503 1506 1509 1511 1511 1512 1512 1512 1510 1509 1508 1508 1507 1506 1506 1505 1504 1504 1503 1503 1502 1502 1504 1505 1506 1508 1511 1514 1516 1518 1520 1523 1525 1528
1499 1499 1499 1489 1489 1496 1498 1494 1496 1499 1500 1501 1502 1503 1504 1507 1509 1510 1512 1512 1513 1513 1513 1512 1511 1510 1510 1509 1508 1507 1507 1506 1506 1506 1506 1506 1506 1507 1508 1510 1512 1514 1517 1519 1522 1524 1526 1528 1531
1501 1501 1496 1488 1494 1494 1494 1495 1497 1499 1501 1502 1503 1505 1508 1510 1508 1509 1511 1513 1515 1515 1516 1514 1513 1512 1511 1511 1510 1509 1508 1508 1508 1508 1509 1509 1509 1510 1512 1514 1515 1517 1520 1522 1525 1527 1529 1531 1533
1502 1496 1488 1490 1494 1494 1494 1497 1498 1498 1501 1503 1504 1506 1510 1512 1510 1510 1513 1515 1517 1517 1518 1517 1515 1514 1513 1513 1512 1511 1510 1509 1509 1510 1511 1512 1513 1514 1515 1517 1519 1521 1523 1525 1528 1530 1532 1534 1536
1499 1490 1490 1496 1496 1495 1496 1499 1499 1500 1503 1505 1506 1508 1513 1514 1514 1514 1516 1517 1518 1519 1519 1518 1517 1516 1515 1514 1513 1511 1510 1509 1510 1512 1514 1515 1517 1518 1519 1521 1523 1524 1526 1529 1531 1533 1534 1536 1538
1498 1489 1491 1493 1495 1496 1498 1500 1500 1501 1504 1506 1508 1509 1514 1516 1517 1517 1518 1519 1520 1521 1521 1521 1520 1518 1517 1516 1514 1512 1510 1510 1512 1514 1516 1518 1520 1521 1523 1524 1526 1527 1529 1531 1533 1535 1537 1539 1540
1499 1490 1490 1491 1494 1497 1499 1501 1503 1503 1506 1509 1510 1510 1514 1518 1518 1519 1520 1521 1522 1522 1523 1523 1522 1522 1521 1519 1516 1513 1510 1510 1514 1517 1519 1521 1523 1524 1525 1527 1528 1530 1531 1533 1535 1538 1539 1541 1542
1499 1491 1493 1492 1493 1496 1499 1501 1505 1507 1508 1510 1511 1512 1515 1518 1519 1521 1522 1523 1523 1524 1524 1524 1524 1524 1524 1522 1519 1517 1516 1516 1519 1521 1523 1525 1526 1528 1529 1529 1530 1532 1534 1535 1537 1539 1541 1543 1544
1496 1491 1493 1493 1493 1495 1499 1501 1504 1506 1508 1511 1513 1516 1517 1519 1520 1522 1523 1524 1524 1525 1526 1526 1526 1526 1526 1525 1523 1523 1523 1522 1524 1525 1527 1528 1529 1530 1531 1531 1532 1534 1536 1537 1539 1541 1543 1545 1547
1494 1493 1493 1494 1496 1497 1498 1501 1503 1504 1506 1510 1513 1516 1518 1520 1521 1523 1524 1525 1526 1526 1527 1528 1527 1527 1528 1527 1527 1527 1527 1527 1528 1529 1529 1530 1531 1532 1533 1534 1535 1537 1538 1540 1541 1543 1545 1546 1548
1495 1495 1496 1496 1497 1498 1499 1501 1503 1505 1508 1511 1513 1516 1518 1520 1522 1523 1525 1526 1527 1528 1528 1529 1529 1529 1528 1529 1530 1530 1530 1531 1531 1532 1532 1533 1533 1534 1536 1536 1538 1539 1540 1541 1543 1544 1545 1547 1548
1495 1495 1497 1497 1498 1499 1500 1501 1504 1507 1510 1512 1515 1517 1519 1520 1522 1524 1525 1527 1528 1528 1529 1529 1529 1529 1530 1530 1531 1532 1533 1534 1534 1534 1535 1535 1536 1536 1537 1538 1539 1541 1542 1543 1543 1545 1546 1547 1548
1495 1496 1497 1497 1498 1500 1500 1502 1504 1507 1510 1513 1515 1517 1519 1521 1523 1524 1526 1527 1528 1529 1530 1530 1530 1530 1531 1531 1532 1533 1534 1535 1536 1536 1536 1537 1538 1538 1538 1539 1540 1542 1543 1544 1544 1545 1546 1548 1548
1496 1495 1495 1496 1497 1498 1499 1501 1502 1506 1509 1512 1515 1517 1519 1521 1523 1524 1526 1527 1528 1529 1530 1530 1531 1531 1532 1533 1533 1535 1536 1537 1538 1538 1538 1538 1539 1539 1540 1541 1542 1543 1544 1545 1545 1546 1547 1548 1549
1493 1492 1495 1495 1496 1498 1499 1501 1500 1505 1508 1511 1513 1516 1518 1520 1522 1524 1525 1526 1528 1529 1529 1530 1532 1532 1532 1533 1534 1536 1537 1538 1538 1539 1539 1539 1540 1541 1541 1542 1543 1544 1545 1546 1546 1547 1547 1548 1549
1491 1494 1495 1494 1494 1495 1496 1497 1499 1504 1506 1508 1512 1514 1517 1519 1521 1523 1524 1526 1527 1528 1529 1529 1531 1532 1533 1534 1534 1536 1536 1538 1539 1540 1541 1541 1541 1542 1542 1543 1543 1544 1545 1546 1547 1547 1548 1548 1549
1494 1492 1494 1494 1492 1494 1494 1494 1496 1501 1503 1505 1509 1512 1514 1516 1519 1521 1523 1525 1526 1527 1528 1529 1530 1531 1533 1534 1535 1536 1537 1538 1539 1540 1540 1541 1542 1542 1543 1544 1543 1545 1546 1546 1546 1546 1547 1548 1548
1489 1491 1493 1492 1491 1493 1493 1492 1493 1497 1500 1502 1505 1508 1511 1514 1517 1519 1521 1523 1525 1526 1527 1528 1530 1531 1532 1534 1535 1536 1537 1538 1540 1540 1541 1541 1542 1543 1543 1544 1544 1545 1546 1546 1546 1547 1547 1548 1548
1489 1491 1491 1490 1490 1492 1492 1491 1488 1493 1496 1498 1501 1505 1508 1511 1514 1517 1519 1521 1523 1524 1526 1527 1528 1530 1531 1533 1534 1536 1537 1538 1539 1540 1540 1541 1542 1542 1543 1543 1544 1544 1545 1545 1546 1546 1547 1548 1548
1489 1489 1490 1492 1490 1490 1492 1492 1487 1489 1493 1496 1499 1501 1504 1507 1510 1514 1516 1519 1521 1522 1524 1526 1527 1529 1531 1532 1534 1536 1537 1538 1539 1540 1540 1541 1541 1542 1542 1543 1543 1544 1545 1545 1545 1545 1546 1547 1548
1490 1485 1487 1490 1493 1491 1491 1497 1487 1484 1488 1491 1495 1497 1500 1503 1507 1510 1513 1516 1518 1520 1522 1524 1526 1527 1529 1531 1533 1535 1536 1537 1538 1539 1540 1540 1541 1541 1542 1542 1542 1543 1544 1544 1544 1545 1545 1546 1547
1486 1485 1487 1487 1489 1490 1488 1492 1486 1482 1485 1486 1489 1493 1496 1499 1503 1506 1509 1512 1515 1518 1520 1522 1524 1525 1527 1529 1531 1533 1535 1536 1537 1538 1539 1539 1540 1540 1541 1541 1541 1541 1542 1543 1543 1544 1544 1545 1546
1485 1486 1487 1485 1485 1499 1490 1492 1490 1479 1482 1483 1485 1489 1493 1496 1499 1503 1506 1510 1513 1515 1518 1520 1521 1523 1525 1527 1529 1530 1532 1534 1535 1536 1537 1538 1539 1539 1539 1540 1540 1540 1541 1541 1542 1542 1543 1543 1544
1484 1489 1497 1499 1498 1495 1485 1490 1486 1477 1478 1481 1483 1486 1490 1493 1496 1500 1503 1506 1509 1512 1515 1517 1519 1520 1523 1525 1527 1528 1530 1532 1533 1535 1536 1537 1538 1538 1538 1538 1538 1538 1539 1539 1540 1540 1541 1542 1542
1480 1482 1496 1505 1500 1489 1486 1488 1478 1475 1479 1481 1482 1484 1487 1491 1494 1497 1500 1503 1505 1508 1511 1514 1516 1518 1520 1522 1524 1527 1528 1531 1532 1533 1535 1535 1536 1536 1536 1536 1536 1537 1537 1538 1538 1539 1539 1539 1540
1479 1479 1473 1482 1487 1491 1484 1479 1474 1474 1477 1479 1481 1483 1485 1488 1491 1494 1497 1500 1503 1505 1508 1511 1513 1516 1518 1520 1522 1524 1526 1528 1530 1531 1532 1534 1534 1535 1534 1534 1535 1535 1535 1536 1536 1537 1537 1538 1538
1473 1472 1477 1483 1498 1500 1488 1483 1478 1476 1476 1477 1479 1482 1484 1487 1490 1492 1495 1497 1500 1503 1506 1509 1511 1513 1516 1518 1520 1522 1524 1526 1527 1529 1530 1531 1532 1532 1532 1533 1533 1533 1533 1534 1534 1535 1535 1536 1536
1477 1477 1477 1477 1479 1492 1494 1484 1470 1473 1475 1476 1478 1481 1483 1485 1488 1490 1493 1496 1499 1501 1504 1506 1509 1511 1513 1516 1518 1520 1522 1523 1525 1526 1528 1528 1529 1529 1530 1530 1530 1531 1531 1532 1532 1533 1533 1533 1534
1469 1471 1474 1485 1486 1482 1484 1482 1469 1472 1474 1477 1479 1481 1483 1485 1487 1489 1492 1494 1497 1499 1502 1504 1507 1509 1511 1513 1515 1517 1519 1521 1523 1524 1525 1526 1526 1527 1527 1528 1528 1528 1529 1529 1530 1530 1531 1531 1531